Find Starlink 5450

NORAD ID: 54778 Int'l Des: 2022-175 Owner: SPXS Country: US Constellation: starlink operational
LEOCIRCULAR

Current View

Loading 3D Globe...

About Starlink 5450

Starlink 5450 (NORAD 54778) is a starlink constellation satellite (v1.5) launched Dec 17, 2022 by SPXS of US. It operates in LEO, CIRCULAR orbit with a mass of 305.00 kg.

About Starlink 5450

Description loading...

Upcoming Passes

Passes for default location (London). Set your location on the main map for personalized predictions.

Altitude History

Loading altitude history...

Two-Line Element Set

1 54778U 22175W 26170.60020677 -.00000256 00000-0 19934-5 0 9997
2 54778 53.1613 291.5796 0001235 90.2216 269.8917 15.08832914195516
Epoch: Jun 19, 2026 • Age: 41 hours

Current Status

Altitude 547.8 km
Velocity 7.59 km/s
Sub-Earth Point -26.06°S, 109.49°E
Launch Date Dec 17, 2022
Age 3.5 years
Type internet

Technical Details

Classification Payload
Mass 305.00 kg
Dry Mass 290.00 kg
Total Mass 305.00 kg
Length 0.20 m
Diameter 2.80 m
Span 9.00 m
Shape Box + pan
Manufacturer SPXS
Bus Type Starlink
Phase Status In Orbit
Owner/State SPXS/US

Most Searched